| time (UTC) | temp C | wind direction | speed KPH | gust KPH | rain 1hr cm | rain 24hr cm | rain mn cm | humidity % | barometer mb |
| 20260906083025 | 20 | 128 | 0.0 | 3.2 | 0.00 | 0.64 | 0.00 | 93 | 1013.9 |
| 20260906081525 | 20 | 47 | 0.0 | 3.2 | 0.00 | 0.64 | 0.00 | 93 | 1014.0 |
| 20260906080017 | 20 | 196 | 0.0 | 3.2 | 0.00 | 0.64 | 0.00 | 93 | 1013.8 |
| 20260906074512 | 20 | 179 | 0.0 | 3.2 | 0.00 | 0.64 | 0.00 | 93 | 1014.0 |
| 20260906073009 | 20 | 150 | 0.0 | 3.2 | 0.00 | 0.64 | 0.00 | 93 | 1014.2 |
| 20260906071530 | 20 | 124 | 0.0 | 3.2 | 0.00 | 0.64 | 0.00 | 94 | 1014.1 |
| 20260906070027 | 20 | 50 | 0.0 | 3.2 | 0.00 | 0.64 | 0.00 | 93 | 1014.1 |
| 20260906064533 | 20 | 84 | 0.0 | 1.6 | 0.00 | 0.64 | 0.00 | 93 | 1014.0 |
| 20260906063023 | 20 | 84 | 0.0 | 1.6 | 0.00 | 0.64 | 0.00 | 93 | 1014.3 |
| 20260906061516 | 21 | 84 | 0.0 | 0.0 | 0.00 | 0.64 | 0.00 | 93 | 1014.3 |
| 20260906060021 | 21 | 84 | 0.0 | 3.2 | 0.00 | 0.64 | 0.00 | 93 | 1014.5 |
| 20260906054530 | 21 | 39 | 0.0 | 3.2 | 0.00 | 0.64 | 0.00 | 93 | 1014.7 |
| 20260906053032 | 21 | 127 | 0.0 | 3.2 | 0.00 | 0.64 | 0.00 | 93 | 1014.7 |
| 20260906051527 | 21 | 84 | 0.0 | 3.2 | 0.00 | 0.64 | 0.00 | 93 | 1015.0 |
| 20260906050027 | 21 | 58 | 0.0 | 3.2 | 0.00 | 0.64 | 0.00 | 92 | 1015.1 |
| 20260906044523 | 21 | 117 | 0.0 | 3.2 | 0.00 | 0.64 | 0.00 | 92 | 1014.9 |
| 20260906043022 | 21 | 117 | 0.0 | 3.2 | 0.00 | 0.64 | 0.00 | 92 | 1014.7 |
| 20260906041516 | 21 | 129 | 0.0 | 3.2 | 0.00 | 0.64 | 0.00 | 92 | 1014.8 |
| 20260906040038 | 21 | 130 | 0.0 | 3.2 | 0.00 | 0.64 | 0.00 | 91 | 1014.8 |
| 20260906034535 | 21 | 78 | 0.0 | 3.2 | 0.00 | 0.64 | 0.64 | 91 | 1014.9 |
| 20260906033033 | 21 | 61 | 0.0 | 3.2 | 0.00 | 0.64 | 0.64 | 91 | 1015.1 |
| 20260906031526 | 22 | 115 | 0.0 | 3.2 | 0.00 | 0.64 | 0.64 | 91 | 1015.1 |
| 20260906030026 | 22 | 90 | 0.0 | 0.0 | 0.00 | 0.64 | 0.64 | 91 | 1015.0 |
| 20260906024523 | 22 | 90 | 0.0 | 0.0 | 0.00 | 0.64 | 0.64 | 90 | 1015.1 |
| 20260906023037 | 22 | 89 | 0.0 | 0.0 | 0.00 | 0.64 | 0.64 | 89 | 1015.0 |
| 20260906021534 | 22 | 89 | 0.0 | 0.0 | 0.00 | 0.64 | 0.64 | 88 | 1015.0 |
| 20260906020034 | 22 | 99 | 0.0 | 0.0 | 0.00 | 0.64 | 0.64 | 88 | 1014.9 |
| 20260906014534 | 23 | 82 | 0.0 | 0.0 | 0.00 | 0.64 | 0.64 | 87 | 1014.7 |
| 20260906013027 | 23 | 92 | 0.0 | 0.0 | 0.00 | 0.64 | 0.64 | 86 | 1014.8 |
| 20260906011524 | 23 | 359 | 0.0 | 0.0 | 0.00 | 0.64 | 0.64 | 86 | 1014.6 |
| 20260906010020 | 23 | 98 | 0.0 | 0.0 | 0.00 | 0.64 | 0.64 | 85 | 1014.4 |
| 20260906004531 | 24 | 274 | 0.0 | 0.0 | 0.00 | 0.64 | 0.64 | 83 | 1014.3 |
| 20260906003034 | 25 | 250 | 0.0 | 0.0 | 0.00 | 0.64 | 0.64 | 81 | 1014.1 |
| 20260906001531 | 25 | 250 | 0.0 | 0.0 | 0.00 | 0.64 | 0.64 | 80 | 1013.9 |
| 20260906000030 | 26 | 250 | 0.0 | 0.0 | 0.00 | 0.64 | 0.64 | 77 | 1013.9 |
| 20260905234525 | 26 | 249 | 0.0 | 0.0 | 0.00 | 0.64 | 0.64 | 75 | 1013.8 |
| 20260905233028 | 27 | 231 | 0.0 | 0.0 | 0.00 | 0.64 | 0.64 | 71 | 1013.7 |
| 20260905231535 | 28 | 245 | 0.0 | 3.2 | 0.00 | 0.64 | 0.64 | 68 | 1013.7 |
| 20260905230034 | 29 | 174 | 0.0 | 4.8 | 0.00 | 0.64 | 0.64 | 65 | 1013.9 |
| 20260905224539 | 30 | 210 | 1.6 | 3.2 | 0.00 | 0.64 | 0.64 | 61 | 1014.1 |
| 20260905223031 | 31 | 201 | 1.6 | 8.0 | 0.00 | 0.64 | 0.64 | 58 | 1014.3 |
| 20260905221538 | 31 | 337 | 0.0 | 8.0 | 0.00 | 0.64 | 0.64 | 59 | 1014.2 |
| 20260905220029 | 31 | 171 | 0.0 | 4.8 | 0.00 | 0.64 | 0.64 | 59 | 1014.1 |
| 20260905214528 | 30 | 240 | 0.0 | 4.8 | 0.00 | 0.64 | 0.64 | 61 | 1014.1 |
| 20260905213034 | 30 | 112 | 1.6 | 4.8 | 0.00 | 0.64 | 0.64 | 61 | 1014.0 |
| 20260905211534 | 30 | 224 | 1.6 | 4.8 | 0.00 | 0.64 | 0.64 | 60 | 1013.9 |
| 20260905210025 | 30 | 224 | 1.6 | 6.4 | 0.00 | 0.64 | 0.64 | 62 | 1013.9 |
| 20260905204510 | 30 | 223 | 0.0 | 4.8 | 0.00 | 0.64 | 0.64 | 60 | 1014.1 |
| 20260905203008 | 29 | 249 | 0.0 | 6.4 | 0.00 | 0.64 | 0.64 | 61 | 1014.0 |
| 20260905201529 | 28 | 334 | 1.6 | 8.0 | 0.00 | 0.64 | 0.64 | 63 | 1014.3 |
| 20260905200026 | 28 | 84 | 0.0 | 3.2 | 0.00 | 0.64 | 0.64 | 67 | 1014.3 |
| 20260905194526 | 27 | 216 | 0.0 | 4.8 | 0.00 | 0.64 | 0.64 | 69 | 1014.6 |
| 20260905193022 | 27 | 115 | 1.6 | 4.8 | 0.00 | 0.64 | 0.64 | 72 | 1014.9 |
| 20260905191515 | 26 | 110 | 1.6 | 3.2 | 0.00 | 0.64 | 0.64 | 74 | 1015.1 |
| 20260905190016 | 25 | 209 | 1.6 | 4.8 | 0.00 | 0.64 | 0.64 | 78 | 1015.3 |
| 20260905184546 | 22 | 111 | 1.6 | 4.8 | 0.00 | 0.64 | 0.64 | 87 | 1015.5 |
| 20260905183030 | 21 | 121 | 1.6 | 4.8 | 0.00 | 0.64 | 0.64 | 90 | 1015.8 |
| 20260905181530 | 21 | 59 | 0.0 | 3.2 | 0.00 | 0.64 | 0.64 | 93 | 1016.2 |
| 20260905180026 | 21 | 359 | 0.0 | 3.2 | 0.03 | 0.64 | 0.64 | 93 | 1016.9 |
| 20260905174534 | 21 | 285 | 0.0 | 3.2 | 0.03 | 0.64 | 0.64 | 93 | 1017.3 |
| 20260905173026 | 21 | 314 | 0.0 | 3.2 | 0.05 | 0.64 | 0.64 | 92 | 1017.9 |
| 20260905171515 | 21 | 337 | 0.0 | 3.2 | 0.64 | 0.64 | 0.64 | 91 | 1017.8 |
| 20260905170033 | 21 | 122 | 0.0 | 3.2 | 0.61 | 0.61 | 0.61 | 89 | 1017.6 |
| 20260905164530 | 21 | 127 | 1.6 | 4.8 | 0.61 | 0.61 | 0.61 | 88 | 1017.7 |
| 20260905163030 | 22 | 65 | 1.6 | 9.7 | 0.58 | 0.58 | 0.58 | 80 | 1017.7 |
| 20260905161529 | 26 | 359 | 8.0 | 24.1 | 0.00 | 0.00 | 0.00 | 68 | 1018.0 |
| 20260905160029 | 30 | 15 | 1.6 | 4.8 | 0.00 | 0.00 | 0.00 | 68 | 1016.7 |
| 20260905154520 | 30 | 248 | 0.0 | 4.8 | 0.00 | 0.00 | 0.00 | 65 | 1016.7 |
| 20260905153036 | 31 | 11 | 1.6 | 4.8 | 0.00 | 0.00 | 0.00 | 64 | 1017.1 |
| 20260905151534 | 30 | 359 | 0.0 | 3.2 | 0.00 | 0.00 | 0.00 | 66 | 1016.8 |
| 20260905150031 | 30 | 240 | 1.6 | 4.8 | 0.00 | 0.00 | 0.00 | 67 | 1016.6 |
| 20260905144535 | 30 | 50 | 0.0 | 4.8 | 0.00 | 0.00 | 0.00 | 68 | 1016.6 |
| 20260905143031 | 29 | 325 | 0.0 | 1.6 | 0.00 | 0.00 | 0.00 | 69 | 1016.6 |
| 20260905141528 | 28 | 20 | 0.0 | 3.2 | 0.00 | 0.00 | 0.00 | 71 | 1016.8 |
| 20260905140023 | 27 | 274 | 0.0 | 0.0 | 0.00 | 0.00 | 0.00 | 72 | 1016.8 |
| 20260905134535 | 27 | 19 | 0.0 | 3.2 | 0.00 | 0.00 | 0.00 | 75 | 1016.7 |
| 20260905133032 | 26 | 52 | 0.0 | 0.0 | 0.00 | 0.00 | 0.00 | 77 | 1016.8 |
| 20260905131546 | 25 | 65 | 0.0 | 3.2 | 0.00 | 0.00 | 0.00 | 80 | 1016.9 |
| 20260905130035 | 24 | 17 | 0.0 | 3.2 | 0.00 | 0.00 | 0.00 | 83 | 1017.2 |
| 20260905124539 | 23 | 45 | 0.0 | 0.0 | 0.00 | 0.00 | 0.00 | 88 | 1017.1 |
| 20260905123027 | 22 | 285 | 0.0 | 0.0 | 0.00 | 0.00 | 0.00 | 91 | 1017.2 |
| 20260905121530 | 21 | 254 | 0.0 | 0.0 | 0.00 | 0.00 | 0.00 | 91 | 1017.1 |
| 20260905120021 | 21 | 68 | 0.0 | 3.2 | 0.00 | 0.00 | 0.00 | 93 | 1017.0 |
| 20260905114533 | 21 | 131 | 0.0 | 0.0 | 0.00 | 0.00 | 0.00 | 93 | 1016.8 |
| 20260905113012 | 21 | 131 | 0.0 | 0.0 | 0.00 | 0.00 | 0.00 | 94 | 1016.6 |
| 20260905111515 | 21 | 131 | 0.0 | 0.0 | 0.00 | 0.00 | 0.00 | 93 | 1016.4 |
| 20260905110006 | 21 | 131 | 0.0 | 0.0 | 0.00 | 0.00 | 0.00 | 93 | 1016.3 |
| 20260905104528 | 21 | 131 | 0.0 | 0.0 | 0.00 | 0.00 | 0.00 | 93 | 1016.2 |
| 20260905103030 | 21 | 131 | 0.0 | 0.0 | 0.00 | 0.00 | 0.00 | 93 | 1016.1 |
| 20260905101530 | 21 | 131 | 0.0 | 0.0 | 0.00 | 0.00 | 0.00 | 93 | 1016.0 |
| 20260905100020 | 21 | 131 | 0.0 | 0.0 | 0.00 | 0.00 | 0.00 | 92 | 1015.9 |
| 20260905094516 | 21 | 131 | 0.0 | 0.0 | 0.00 | 0.00 | 0.00 | 92 | 1015.9 |
| 20260905093012 | 21 | 82 | 0.0 | 0.0 | 0.00 | 0.00 | 0.00 | 92 | 1015.8 |
| 20260905091529 | 21 | 74 | 0.0 | 0.0 | 0.00 | 0.00 | 0.00 | 92 | 1015.6 |
| 20260905090035 | 21 | 51 | 0.0 | 0.0 | 0.00 | 0.00 | 0.00 | 92 | 1015.7 |
| 20260905084553 | 21 | 51 | 0.0 | 0.0 | 0.00 | 0.00 | 0.00 | 91 | 1015.8 |